Home   Weather   Easter Island   Past weeks
Flag for Chile

Past Weather in Easter Island, Chile — Yesterday and Last 2 Weeks

Now
70 °F

Scattered clouds.


Feels Like: 70 °F
Forecast: 72 / 64 °F
Wind: 16 mph from Northwest

Location: Isla De Pascua

Current Time: Jul 23, 2019 at 11:44:01 am

Latest Report: Jul 23, 2019 at 11:00 am


Visibility: N/A

Pressure: 30.21 "Hg

Humidity: 78%

Dew Point: 63 °F

Location of Easter IslandLocation

Past Weather in Easter Island — Graph

°F

Easter Island Temperature Yesterday

Maximum temperature yesterday: 73 °F (at 4:00 pm)
Minimum temperature yesterday: 64 °F (at 12:00 am)
Average temperature yesterday: 68 °F

High & Low Weather Summary for the Past Weeks

 TemperatureHumidityPressure
High73 °F (Jul 18, 2:00 pm)94% (Jul 12, 2:00 am)30.33 "Hg (Jul 12, 2:00 am)
Low54 °F (Jul 12, 2:00 am)50% (Jul 17, 4:00 pm)30.09 "Hg (Jul 19, 6:00 am)
Average65 °F77%30.22 "Hg
* Reported Jul 8 10:00 am — Jul 23 10:00 am, Easter Island. Weather by CustomWeather, © 2019

Note: Actual official high and low records may vary slightly from our data, if they occured in-between our weather recording intervals... More about our weather records

Advertising

Easter Island Weather History for the Previous 24 Hours

Scroll right to see more
 ConditionsComfort  
Time TempWeatherWind HumidityBarometerVisibility
10:00 am
Tue, Jul 23
68 °FPassing clouds.9 mph83%30.21 "HgN/A
9:00 am66 °FPassing clouds.7 mph83%30.18 "HgN/A
8:00 am66 °FPassing clouds.8 mph83%30.18 "HgN/A
7:00 am66 °FPartly cloudy.10 mph83%30.18 "HgN/A
6:00 am68 °FPartly cloudy.8 mph78%30.15 "HgN/A
5:00 am66 °FPartly cloudy.6 mph78%30.18 "HgN/A
4:00 am66 °FPartly cloudy.5 mph83%30.18 "HgN/A
3:00 am66 °FPartly cloudy.6 mph78%30.18 "HgN/A
2:00 am64 °FPassing clouds.9 mph83%30.18 "HgN/A
1:00 am66 °FPartly cloudy.8 mph83%30.21 "HgN/A
12:00 am66 °FPartly cloudy.10 mph83%30.21 "HgN/A
11:00 pm
Mon, Jul 22
66 °FPartly cloudy.7 mph83%30.24 "HgN/A
10:00 pm66 °FPartly cloudy.2 mph83%30.24 "HgN/A
9:00 pm66 °FPartly cloudy.8 mph83%30.24 "HgN/A
8:00 pm66 °FPartly cloudy.10 mph83%30.24 "HgN/A
7:00 pm66 °FBroken clouds.6 mph88%30.21 "HgN/A
6:00 pm70 °FBroken clouds.10 mph73%30.18 "HgN/A
5:00 pm70 °FBroken clouds.13 mph69%30.18 "HgN/A
4:00 pm73 °FPassing clouds.15 mph65%30.18 "HgN/A
3:00 pm72 °FScattered clouds.13 mph61%30.18 "HgN/A
2:00 pm72 °FScattered clouds.12 mph61%30.21 "HgN/A
1:00 pm72 °FBroken clouds.12 mph61%30.24 "HgN/A
12:00 pm70 °FBroken clouds.10 mph60%30.24 "HgN/A
11:00 am72 °FBroken clouds.9 mph57%30.27 "HgN/A
Weather by CustomWeather, © 2019

See weather overview